Regional Weather Roundup
Issued by NWS

Home | Current Version | Previous Version | Text Only | Print | Product List | Glossary On
Versions: 1 2 3 4 5 6 7 8 9 10 11 12 13 14 15 16 17 18 19 20 21 22 23 24 25 26 27 28 29 30 31 32 33 34 35 36 37 38 39 40 41 42 43 44 45 46 47 48 49 50
041
ASUS43 KTOP 021708
RWRKS

WEATHER ROUNDUP FOR KANSAS
NATIONAL WEATHER SERVICE GOODLAND KS
1200 PM CDT MON MAY 02 2016

NOTE:  "FAIR" INDICATES FEW OR NO CLOUDS BELOW 12,000 FEET WITH NO
SIGNIFICANT WEATHER AND/OR OBSTRUCTIONS TO VISIBILITY.

KSZ001>006-013>018-027>032-041>047-021800-
NORTHWEST KANSAS

CITY           SKY/WX    TMP DP  RH WIND       PRES   REMARKS
GOODLAND       SUNNY     54  31  41 NW13G29   30.20S
HAYS           MOSUNNY   57  34  41 NW12G17   30.19S
HILL CITY      MOSUNNY   59  36  42 NW10      30.19F
RUSSELL        PTSUNNY   58  37  45 W8        30.17S
$$

KSZ061>065-074>080-084>089-021800-
SOUTHWEST KANSAS

CITY           SKY/WX    TMP DP  RH WIND       PRES   REMARKS
DODGE CITY     MOSUNNY   56  34  43 N12G22    30.22S
ELKHART          N/A     51  30  44 NW12        N/A
GARDEN CITY    MOSUNNY   53  30  41 NW13G21   30.22S
GREAT BEND     CLOUDY    55  36  47 NW12      30.19S
LIBERAL        MOSUNNY   54  37  54 N10       30.26S
PRATT          CLOUDY    52  37  57 N10       30.21S
$$

KSZ066>073-081>083-090>101-021800-
SOUTHEAST KANSAS

CITY           SKY/WX    TMP DP  RH WIND       PRES   REMARKS
CHANUTE        CLOUDY    56  43  61 N7        30.14S
COFFEYVILLE    CLOUDY    53  43  68 N10       30.16R
HUTCHINSON     CLOUDY    58  40  51 N9        30.19R
MEDICINE LODGE   N/A     56  40  55 N10       30.20S
NEWTON         CLOUDY    55  39  54 N14       30.19S
PARSONS        CLOUDY    54  45  71 NW6       30.16S
WICHITA INTL   CLOUDY    58  41  53 N16       30.17S
WICHITA JABRA  CLOUDY    57  42  57 N13G21    30.17R
WINFIELD       CLOUDY    54  43  66 N14       30.19R
$$

KSZ007>012-019>026-033>040-048>060-102>105-021800-
NORTHEAST KANSAS

CITY           SKY/WX    TMP DP  RH WIND       PRES   REMARKS
CONCORDIA      CLOUDY    58  40  51 NW10      30.16S
EMPORIA        CLOUDY    56  43  61 N9        30.14S
LAWRENCE       CLOUDY    55  45  68 E8        30.12S
MANHATTAN      CLOUDY    56  41  57 N8        30.15S
MARYSVILLE     CLOUDY    55  41  58 N10       30.13F
OLATHE IND     CLOUDY    52  44  74 NW8       30.13R
OLATHE EXE     CLOUDY    52  42  69 N9        30.12S
SALINA         CLOUDY    61  44  53 N10       30.17F
TOPEKA BILLARD CLOUDY    56  43  61 N9        30.12F
TOPEKA FORBES  CLOUDY    58  44  60 N8        30.12S
$$




USA.gov is the U.S. government's official web portal to all federal, state and local government web resources and services.